Time,TemperatureF,DewpointF,PressureIn,WindDirection,WindDirectionDegrees,WindSpeedMPH,WindSpeedGustMPH,Humidity,HourlyPrecipIn,Conditions,Clouds,dailyrainin,SoftwareType,DateUTC
2013-01-31 00:02:00,46.8,41.0,30.23,West,269,0.0,0.0,80,0.00,,,0.00,Wunderground v.1.15,2013-01-31 08:02:00,
2013-01-31 00:08:00,46.7,40.9,30.23,West,269,0.0,0.0,80,0.00,,,0.00,Wunderground v.1.15,2013-01-31 08:08:00,
2013-01-31 00:14:00,46.6,40.8,30.23,West,269,0.0,0.0,80,0.00,,,0.00,Wunderground v.1.15,2013-01-31 08:14:00,
2013-01-31 00:20:00,46.4,40.9,30.23,West,269,0.0,0.0,81,0.00,,,0.00,Wunderground v.1.15,2013-01-31 08:20:00,
2013-01-31 00:27:00,46.3,40.8,30.23,West,269,0.0,0.0,81,0.00,,,0.00,Wunderground v.1.15,2013-01-31 08:27:00,
2013-01-31 00:34:00,46.2,40.7,30.23,West,269,0.0,0.0,81,0.00,,,0.00,Wunderground v.1.15,2013-01-31 08:34:00,
2013-01-31 00:40:00,46.0,40.5,30.23,West,269,0.0,0.0,81,0.00,,,0.00,Wunderground v.1.15,2013-01-31 08:40:00,
2013-01-31 00:46:00,45.8,40.6,30.23,West,269,0.0,0.0,82,0.00,,,0.00,Wunderground v.1.15,2013-01-31 08:46:00,
2013-01-31 00:52:00,45.8,40.6,30.23,West,269,0.0,0.0,82,0.00,,,0.00,Wunderground v.1.15,2013-01-31 08:52:00,
2013-01-31 00:58:00,45.7,40.5,30.22,West,269,0.0,0.0,82,0.00,,,0.00,Wunderground v.1.15,2013-01-31 08:58:00,
2013-01-31 01:04:00,45.5,40.6,30.22,West,269,0.0,0.0,83,0.00,,,0.00,Wunderground v.1.15,2013-01-31 09:04:00,
2013-01-31 01:10:00,45.4,40.5,30.22,West,269,0.0,0.0,83,0.00,,,0.00,Wunderground v.1.15,2013-01-31 09:10:00,
2013-01-31 01:16:00,45.2,40.7,30.22,West,269,0.0,0.0,84,0.00,,,0.00,Wunderground v.1.15,2013-01-31 09:16:00,
2013-01-31 01:22:00,45.1,40.6,30.22,West,269,0.0,0.0,84,0.00,,,0.00,Wunderground v.1.15,2013-01-31 09:22:00,
2013-01-31 01:28:00,45.0,40.5,30.22,West,269,0.0,0.0,84,0.00,,,0.00,Wunderground v.1.15,2013-01-31 09:28:00,
2013-01-31 01:34:00,44.9,40.4,30.22,West,269,0.0,0.0,84,0.00,,,0.00,Wunderground v.1.15,2013-01-31 09:34:00,
2013-01-31 01:40:00,44.9,40.7,30.22,West,269,0.0,0.0,85,0.00,,,0.00,Wunderground v.1.15,2013-01-31 09:40:00,
2013-01-31 01:46:00,44.9,40.7,30.21,West,269,0.0,0.0,85,0.00,,,0.00,Wunderground v.1.15,2013-01-31 09:46:00,
2013-01-31 01:52:00,44.8,40.6,30.21,West,269,0.0,1.0,85,0.00,,,0.00,Wunderground v.1.15,2013-01-31 09:52:00,
2013-01-31 01:58:00,44.7,40.5,30.21,West,269,0.0,1.0,85,0.00,,,0.00,Wunderground v.1.15,2013-01-31 09:58:00,
2013-01-31 02:04:00,44.7,40.5,30.21,West,269,0.0,0.0,85,0.00,,,0.00,Wunderground v.1.15,2013-01-31 10:04:00,
2013-01-31 02:10:00,44.5,40.3,30.21,West,269,0.0,0.0,85,0.00,,,0.00,Wunderground v.1.15,2013-01-31 10:10:00,
2013-01-31 02:16:00,44.4,40.2,30.20,West,269,0.0,0.0,85,0.00,,,0.00,Wunderground v.1.15,2013-01-31 10:16:00,
2013-01-31 02:22:00,44.3,40.4,30.20,West,269,0.0,0.0,86,0.00,,,0.00,Wunderground v.1.15,2013-01-31 10:22:00,
2013-01-31 02:28:00,44.1,40.2,30.20,West,269,0.0,0.0,86,0.00,,,0.00,Wunderground v.1.15,2013-01-31 10:28:00,
2013-01-31 02:34:00,44.0,40.1,30.20,West,269,0.0,0.0,86,0.00,,,0.00,Wunderground v.1.15,2013-01-31 10:34:00,
2013-01-31 02:40:00,43.8,39.9,30.20,West,269,0.0,0.0,86,0.00,,,0.00,Wunderground v.1.15,2013-01-31 10:40:00,
2013-01-31 02:46:00,43.6,39.7,30.19,West,269,0.0,0.0,86,0.00,,,0.00,Wunderground v.1.15,2013-01-31 10:46:00,
2013-01-31 02:52:00,43.5,39.9,30.19,West,269,0.0,0.0,87,0.00,,,0.00,Wunderground v.1.15,2013-01-31 10:52:00,
2013-01-31 02:58:00,43.7,40.7,30.19,West,269,0.0,0.0,89,0.00,,,0.00,Wunderground v.1.15,2013-01-31 10:58:00,
2013-01-31 03:04:00,43.9,40.6,30.19,West,269,0.0,0.0,88,0.00,,,0.00,Wunderground v.1.15,2013-01-31 11:04:00,
2013-01-31 03:10:00,45.1,43.2,30.19,West,269,0.0,0.0,93,0.00,,,0.00,Wunderground v.1.15,2013-01-31 11:10:00,
2013-01-31 03:16:00,45.2,41.6,30.18,West,269,0.0,0.0,87,0.00,,,0.00,Wunderground v.1.15,2013-01-31 11:16:00,
2013-01-31 03:22:00,44.6,40.4,30.18,West,269,0.0,0.0,85,0.00,,,0.00,Wunderground v.1.15,2013-01-31 11:22:00,
2013-01-31 03:28:00,44.2,40.3,30.18,West,269,0.0,1.0,86,0.00,,,0.00,Wunderground v.1.15,2013-01-31 11:28:00,
2013-01-31 03:34:00,43.8,39.9,30.17,West,269,0.0,0.0,86,0.00,,,0.00,Wunderground v.1.15,2013-01-31 11:34:00,
2013-01-31 03:40:00,43.5,39.9,30.17,West,269,0.0,0.0,87,0.00,,,0.00,Wunderground v.1.15,2013-01-31 11:40:00,
2013-01-31 03:47:00,43.3,40.0,30.17,West,269,0.0,1.0,88,0.00,,,0.00,Wunderground v.1.15,2013-01-31 11:47:00,
2013-01-31 03:52:00,43.2,39.9,30.17,West,269,0.0,0.0,88,0.00,,,0.00,Wunderground v.1.15,2013-01-31 11:52:00,
2013-01-31 03:58:00,43.0,39.7,30.17,West,269,0.0,0.0,88,0.00,,,0.00,Wunderground v.1.15,2013-01-31 11:58:00,
2013-01-31 04:04:00,42.9,39.6,30.17,West,269,0.0,0.0,88,0.00,,,0.00,Wunderground v.1.15,2013-01-31 12:04:00,
2013-01-31 04:10:00,42.8,39.5,30.16,West,269,0.0,0.0,88,0.00,,,0.00,Wunderground v.1.15,2013-01-31 12:10:00,
2013-01-31 04:16:00,42.7,39.7,30.16,West,269,0.0,0.0,89,0.00,,,0.00,Wunderground v.1.15,2013-01-31 12:16:00,
2013-01-31 04:22:00,42.6,39.6,30.16,West,269,0.0,0.0,89,0.00,,,0.00,Wunderground v.1.15,2013-01-31 12:22:00,
2013-01-31 04:28:00,42.5,39.5,30.17,West,269,0.0,1.0,89,0.00,,,0.00,Wunderground v.1.15,2013-01-31 12:28:00,
2013-01-31 04:34:00,42.4,39.4,30.17,West,269,0.0,1.0,89,0.00,,,0.00,Wunderground v.1.15,2013-01-31 12:34:00,
2013-01-31 04:40:00,42.4,39.4,30.16,West,269,0.0,0.0,89,0.00,,,0.00,Wunderground v.1.15,2013-01-31 12:40:00,
2013-01-31 04:47:00,43.1,41.2,30.16,West,269,0.0,0.0,93,0.00,,,0.00,Wunderground v.1.15,2013-01-31 12:47:00,
2013-01-31 04:52:00,43.0,40.3,30.16,West,269,0.0,0.0,90,0.00,,,0.00,Wunderground v.1.15,2013-01-31 12:52:00,
2013-01-31 04:58:00,42.6,39.6,30.16,West,269,0.0,0.0,89,0.00,,,0.00,Wunderground v.1.15,2013-01-31 12:58:00,
2013-01-31 05:04:00,42.7,40.5,30.17,West,269,0.0,0.0,92,0.00,,,0.00,Wunderground v.1.15,2013-01-31 13:04:00,
2013-01-31 05:10:00,42.9,40.5,30.16,West,269,0.0,0.0,91,0.00,,,0.00,Wunderground v.1.15,2013-01-31 13:10:00,
2013-01-31 05:16:00,43.1,40.4,30.16,West,269,0.0,0.0,90,0.00,,,0.00,Wunderground v.1.15,2013-01-31 13:16:00,
2013-01-31 05:22:00,42.9,39.6,30.16,West,269,0.0,0.0,88,0.00,,,0.00,Wunderground v.1.15,2013-01-31 13:22:00,
2013-01-31 05:28:00,42.5,39.2,30.16,West,269,0.0,0.0,88,0.00,,,0.00,Wunderground v.1.15,2013-01-31 13:28:00,
2013-01-31 05:34:00,42.4,39.4,30.16,West,269,0.0,0.0,89,0.00,,,0.00,Wunderground v.1.15,2013-01-31 13:34:00,
2013-01-31 05:40:00,42.3,39.3,30.16,West,269,0.0,0.0,89,0.00,,,0.00,Wunderground v.1.15,2013-01-31 13:40:00,
2013-01-31 05:46:00,42.1,39.1,30.16,West,269,0.0,0.0,89,0.00,,,0.00,Wunderground v.1.15,2013-01-31 13:46:00,
2013-01-31 05:54:00,41.9,39.2,30.16,West,269,0.0,0.0,90,0.00,,,0.00,Wunderground v.1.15,2013-01-31 13:54:00,
2013-01-31 06:00:00,41.9,39.2,30.16,West,269,0.0,0.0,90,0.00,,,0.00,Wunderground v.1.15,2013-01-31 14:00:00,
2013-01-31 06:06:00,41.8,39.1,30.16,West,269,0.0,0.0,90,0.00,,,0.00,Wunderground v.1.15,2013-01-31 14:06:00,
2013-01-31 06:13:00,41.8,39.1,30.16,West,269,0.0,0.0,90,0.00,,,0.00,Wunderground v.1.15,2013-01-31 14:13:00,
2013-01-31 06:18:00,41.7,39.0,30.17,West,269,0.0,0.0,90,0.00,,,0.00,Wunderground v.1.15,2013-01-31 14:18:00,
2013-01-31 06:24:00,41.7,39.3,30.17,West,269,0.0,2.0,91,0.00,,,0.00,Wunderground v.1.15,2013-01-31 14:24:00,
2013-01-31 06:30:00,42.1,40.2,30.16,West,269,0.0,0.0,93,0.00,,,0.00,Wunderground v.1.15,2013-01-31 14:30:00,
2013-01-31 06:36:00,41.9,39.5,30.17,West,269,0.0,0.0,91,0.00,,,0.00,Wunderground v.1.15,2013-01-31 14:36:00,
2013-01-31 06:42:00,41.8,39.4,30.17,West,269,0.0,0.0,91,0.00,,,0.00,Wunderground v.1.15,2013-01-31 14:42:00,
2013-01-31 06:48:00,41.9,39.5,30.17,West,269,0.0,0.0,91,0.00,,,0.00,Wunderground v.1.15,2013-01-31 14:48:00,
2013-01-31 06:54:00,42.4,40.5,30.17,West,269,0.0,0.0,93,0.00,,,0.00,Wunderground v.1.15,2013-01-31 14:54:00,
2013-01-31 07:00:00,42.5,39.8,30.17,West,269,0.0,0.0,90,0.00,,,0.00,Wunderground v.1.15,2013-01-31 15:00:00,
2013-01-31 07:06:00,42.5,39.8,30.17,West,269,0.0,0.0,90,0.00,,,0.00,Wunderground v.1.15,2013-01-31 15:06:00,
2013-01-31 07:12:00,42.4,39.7,30.17,West,269,0.0,0.0,90,0.00,,,0.00,Wunderground v.1.15,2013-01-31 15:12:00,
2013-01-31 07:18:00,42.3,39.6,30.17,West,269,0.0,0.0,90,0.00,,,0.00,Wunderground v.1.15,2013-01-31 15:18:00,
2013-01-31 07:24:00,42.5,39.8,30.17,West,269,0.0,0.0,90,0.00,,,0.00,Wunderground v.1.15,2013-01-31 15:24:00,
2013-01-31 07:30:00,42.8,40.4,30.17,West,269,0.0,0.0,91,0.00,,,0.00,Wunderground v.1.15,2013-01-31 15:30:00,
2013-01-31 07:37:00,43.3,40.6,30.18,West,269,0.0,0.0,90,0.00,,,0.00,Wunderground v.1.15,2013-01-31 15:37:00,
2013-01-31 07:42:00,43.7,41.0,30.18,West,269,0.0,0.0,90,0.00,,,0.00,Wunderground v.1.15,2013-01-31 15:42:00,
2013-01-31 07:48:00,44.0,41.3,30.18,West,269,0.0,0.0,90,0.00,,,0.00,Wunderground v.1.15,2013-01-31 15:48:00,
2013-01-31 07:54:00,44.3,41.6,30.18,West,269,0.0,0.0,90,0.00,,,0.00,Wunderground v.1.15,2013-01-31 15:54:00,
2013-01-31 08:00:00,44.9,42.1,30.18,West,269,0.0,0.0,90,0.00,,,0.00,Wunderground v.1.15,2013-01-31 16:00:00,
2013-01-31 08:06:00,45.9,42.8,30.18,West,269,0.0,0.0,89,0.00,,,0.00,Wunderground v.1.15,2013-01-31 16:06:00,
2013-01-31 08:12:00,47.0,43.6,30.18,West,269,0.0,0.0,88,0.00,,,0.00,Wunderground v.1.15,2013-01-31 16:12:00,
2013-01-31 08:18:00,48.2,44.2,30.18,West,269,0.0,0.0,86,0.00,,,0.00,Wunderground v.1.15,2013-01-31 16:18:00,
2013-01-31 08:24:00,49.4,44.5,30.19,West,269,0.0,0.0,83,0.00,,,0.00,Wunderground v.1.15,2013-01-31 16:24:00,
2013-01-31 08:30:00,50.4,44.5,30.19,West,269,0.0,0.0,80,0.00,,,0.00,Wunderground v.1.15,2013-01-31 16:30:00,
2013-01-31 08:37:00,51.3,45.0,30.19,West,269,0.0,0.0,79,0.00,,,0.00,Wunderground v.1.15,2013-01-31 16:37:00,
2013-01-31 08:42:00,52.1,45.1,30.19,West,269,0.0,1.0,77,0.00,,,0.00,Wunderground v.1.15,2013-01-31 16:42:00,
2013-01-31 08:48:00,53.0,45.3,30.19,West,269,0.0,1.0,75,0.00,,,0.00,Wunderground v.1.15,2013-01-31 16:48:00,
2013-01-31 08:54:00,53.9,45.1,30.19,West,269,0.0,1.0,72,0.00,,,0.00,Wunderground v.1.15,2013-01-31 16:54:00,
2013-01-31 09:00:00,54.9,45.7,30.20,West,269,0.0,0.0,71,0.00,,,0.00,Wunderground v.1.15,2013-01-31 17:00:00,
2013-01-31 09:06:00,55.8,45.4,30.20,West,269,0.0,1.0,68,0.00,,,0.00,Wunderground v.1.15,2013-01-31 17:06:00,
2013-01-31 09:13:00,56.6,45.8,30.20,West,269,0.0,0.0,67,0.00,,,0.00,Wunderground v.1.15,2013-01-31 17:13:00,
2013-01-31 09:18:00,57.4,46.1,30.20,West,269,0.0,2.0,66,0.00,,,0.00,Wunderground v.1.15,2013-01-31 17:18:00,
2013-01-31 09:24:00,58.4,46.3,30.20,West,269,0.0,0.0,64,0.00,,,0.00,Wunderground v.1.15,2013-01-31 17:24:00,
2013-01-31 09:30:00,59.5,46.5,30.20,West,269,0.0,1.0,62,0.00,,,0.00,Wunderground v.1.15,2013-01-31 17:30:00,
2013-01-31 09:36:00,60.1,46.2,30.21,West,269,1.0,1.0,60,0.00,,,0.00,Wunderground v.1.15,2013-01-31 17:36:00,
2013-01-31 09:42:00,60.4,46.0,30.21,West,269,1.0,1.0,59,0.00,,,0.00,Wunderground v.1.15,2013-01-31 17:42:00,
2013-01-31 09:48:00,60.9,46.0,30.21,WSW,254,1.0,3.0,58,0.00,,,0.00,Wunderground v.1.15,2013-01-31 17:48:00,
2013-01-31 09:54:00,61.3,46.4,30.21,West,273,1.0,2.0,58,0.00,,,0.00,Wunderground v.1.15,2013-01-31 17:54:00,
2013-01-31 10:00:00,61.7,45.8,30.21,SSW,212,2.0,2.0,56,0.00,,,0.00,Wunderground v.1.15,2013-01-31 18:00:00,
2013-01-31 10:06:00,62.2,45.8,30.21,SSW,212,2.0,3.0,55,0.00,,,0.00,Wunderground v.1.15,2013-01-31 18:06:00,
2013-01-31 10:12:00,62.6,45.7,30.20,SSW,212,1.0,1.0,54,0.00,,,0.00,Wunderground v.1.15,2013-01-31 18:12:00,
2013-01-31 10:18:00,63.3,45.4,30.20,SSW,212,1.0,1.0,52,0.00,,,0.00,Wunderground v.1.15,2013-01-31 18:18:00,
2013-01-31 10:24:00,63.8,44.8,30.20,SW,216,1.0,3.0,50,0.00,,,0.00,Wunderground v.1.15,2013-01-31 18:24:00,
2013-01-31 10:30:00,64.5,45.4,30.20,SW,216,1.0,1.0,50,0.00,,,0.00,Wunderground v.1.15,2013-01-31 18:30:00,
2013-01-31 10:36:00,65.2,45.5,30.20,SW,216,1.0,1.0,49,0.00,,,0.00,Wunderground v.1.15,2013-01-31 18:36:00,
2013-01-31 10:42:00,66.1,45.8,30.20,SW,233,1.0,2.0,48,0.00,,,0.00,Wunderground v.1.15,2013-01-31 18:42:00,
2013-01-31 10:48:00,66.7,46.4,30.20,West,265,1.0,2.0,48,0.00,,,0.00,Wunderground v.1.15,2013-01-31 18:48:00,
2013-01-31 10:54:00,67.5,46.6,30.19,West,265,1.0,1.0,47,0.00,,,0.00,Wunderground v.1.15,2013-01-31 18:54:00,
2013-01-31 11:00:00,68.2,46.6,30.19,West,274,1.0,1.0,46,0.00,,,0.00,Wunderground v.1.15,2013-01-31 19:00:00,
2013-01-31 11:07:00,68.6,46.4,30.19,WNW,289,1.0,2.0,45,0.00,,,0.00,Wunderground v.1.15,2013-01-31 19:07:00,
2013-01-31 11:12:00,69.1,45.7,30.19,NW,314,2.0,2.0,43,0.00,,,0.00,Wunderground v.1.15,2013-01-31 19:12:00,
2013-01-31 11:18:00,69.4,45.9,30.18,WNW,285,2.0,2.0,43,0.00,,,0.00,Wunderground v.1.15,2013-01-31 19:18:00,
2013-01-31 11:24:00,70.1,45.3,30.18,WNW,285,1.0,1.0,41,0.00,,,0.00,Wunderground v.1.15,2013-01-31 19:24:00,
2013-01-31 11:30:00,70.8,44.6,30.18,WSW,249,1.0,2.0,39,0.00,,,0.00,Wunderground v.1.15,2013-01-31 19:30:00,
2013-01-31 11:36:00,71.1,44.9,30.17,SW,223,1.0,2.0,39,0.00,,,0.00,Wunderground v.1.15,2013-01-31 19:36:00,
2013-01-31 11:42:00,71.5,43.8,30.17,SW,235,2.0,5.0,37,0.00,,,0.00,Wunderground v.1.15,2013-01-31 19:42:00,
2013-01-31 11:48:00,71.5,43.1,30.17,NNW,332,2.0,5.0,36,0.00,,,0.00,Wunderground v.1.15,2013-01-31 19:48:00,
2013-01-31 11:54:00,71.7,42.6,30.17,WNW,296,2.0,3.0,35,0.00,,,0.00,Wunderground v.1.15,2013-01-31 19:54:00,
2013-01-31 12:00:00,71.8,42.7,30.16,NW,319,3.0,3.0,35,0.00,,,0.00,Wunderground v.1.15,2013-01-31 20:00:00,
2013-01-31 12:06:00,72.3,42.3,30.16,West,280,2.0,5.0,34,0.00,,,0.00,Wunderground v.1.15,2013-01-31 20:06:00,
2013-01-31 12:12:00,73.0,42.2,30.15,North,355,2.0,3.0,33,0.00,,,0.00,Wunderground v.1.15,2013-01-31 20:12:00,
2013-01-31 12:18:00,73.3,41.6,30.15,WNW,295,3.0,5.0,32,0.00,,,0.00,Wunderground v.1.15,2013-01-31 20:18:00,
2013-01-31 12:24:00,73.3,42.4,30.14,WNW,303,4.0,4.0,33,0.00,,,0.00,Wunderground v.1.15,2013-01-31 20:24:00,
2013-01-31 12:30:00,73.6,42.7,30.14,NNW,329,3.0,3.0,33,0.00,,,0.00,Wunderground v.1.15,2013-01-31 20:30:00,
2013-01-31 12:36:00,74.0,43.1,30.13,NNW,328,3.0,4.0,33,0.00,,,0.00,Wunderground v.1.15,2013-01-31 20:36:00,
2013-01-31 12:44:00,74.3,42.5,30.13,WSW,254,3.0,3.0,32,0.00,,,0.00,Wunderground v.1.15,2013-01-31 20:44:00,
2013-01-31 12:50:00,74.5,43.5,30.12,WNW,284,3.0,3.0,33,0.00,,,0.00,Wunderground v.1.15,2013-01-31 20:50:00,
2013-01-31 12:56:00,74.9,43.0,30.12,WSW,248,3.0,5.0,32,0.00,,,0.00,Wunderground v.1.15,2013-01-31 20:56:00,
2013-01-31 13:02:00,75.3,42.6,30.11,NW,313,3.0,4.0,31,0.00,,,0.00,Wunderground v.1.15,2013-01-31 21:02:00,
2013-01-31 13:08:00,75.6,43.7,30.11,West,266,3.0,4.0,32,0.00,,,0.00,Wunderground v.1.15,2013-01-31 21:08:00,
2013-01-31 13:14:00,75.8,43.0,30.11,West,266,2.0,3.0,31,0.00,,,0.00,Wunderground v.1.15,2013-01-31 21:14:00,
2013-01-31 13:20:00,76.0,42.3,30.10,NW,305,3.0,3.0,30,0.00,,,0.00,Wunderground v.1.15,2013-01-31 21:20:00,
2013-01-31 13:26:00,76.2,42.5,30.10,WNW,288,3.0,3.0,30,0.00,,,0.00,Wunderground v.1.15,2013-01-31 21:26:00,
2013-01-31 13:32:00,76.6,42.0,30.10,NW,315,3.0,4.0,29,0.00,,,0.00,Wunderground v.1.15,2013-01-31 21:32:00,
2013-01-31 13:38:00,76.5,41.0,30.09,WNW,302,3.0,4.0,28,0.00,,,0.00,Wunderground v.1.15,2013-01-31 21:38:00,
2013-01-31 13:44:00,76.4,40.9,30.09,NW,306,3.0,4.0,28,0.00,,,0.00,Wunderground v.1.15,2013-01-31 21:44:00,
2013-01-31 13:50:00,76.5,41.9,30.09,WNW,296,2.0,2.0,29,0.00,,,0.00,Wunderground v.1.15,2013-01-31 21:50:00,
2013-01-31 13:57:00,77.1,40.5,30.08,NNW,334,2.0,2.0,27,0.00,,,0.00,Wunderground v.1.15,2013-01-31 21:57:00,
2013-01-31 14:02:00,77.3,40.7,30.08,NW,313,2.0,2.0,27,0.00,,,0.00,Wunderground v.1.15,2013-01-31 22:02:00,
2013-01-31 14:08:00,77.4,40.8,30.08,West,275,2.0,3.0,27,0.00,,,0.00,Wunderground v.1.15,2013-01-31 22:08:00,
2013-01-31 14:14:00,77.8,41.1,30.08,NW,322,2.0,2.0,27,0.00,,,0.00,Wunderground v.1.15,2013-01-31 22:14:00,
2013-01-31 14:20:00,78.3,40.6,30.08,SSW,194,2.0,4.0,26,0.00,,,0.00,Wunderground v.1.15,2013-01-31 22:20:00,
2013-01-31 14:26:00,78.1,39.4,30.08,WNW,290,3.0,5.0,25,0.00,,,0.00,Wunderground v.1.15,2013-01-31 22:26:00,
2013-01-31 14:32:00,77.9,39.2,30.07,SW,226,2.0,3.0,25,0.00,,,0.00,Wunderground v.1.15,2013-01-31 22:32:00,
2013-01-31 14:38:00,78.3,40.6,30.07,WNW,292,2.0,3.0,26,0.00,,,0.00,Wunderground v.1.15,2013-01-31 22:38:00,
2013-01-31 14:44:00,78.6,39.8,30.07,SSW,199,3.0,3.0,25,0.00,,,0.00,Wunderground v.1.15,2013-01-31 22:44:00,
2013-01-31 14:50:00,78.7,39.9,30.07,SW,223,3.0,3.0,25,0.00,,,0.00,Wunderground v.1.15,2013-01-31 22:50:00,
2013-01-31 14:56:00,79.1,40.2,30.07,SW,225,2.0,4.0,25,0.00,,,0.00,Wunderground v.1.15,2013-01-31 22:56:00,
2013-01-31 15:02:00,78.7,39.9,30.07,South,183,3.0,3.0,25,0.00,,,0.00,Wunderground v.1.15,2013-01-31 23:02:00,
2013-01-31 15:08:00,78.8,42.0,30.06,SW,215,3.0,7.0,27,0.00,,,0.00,Wunderground v.1.15,2013-01-31 23:08:00,
2013-01-31 15:14:00,78.4,43.5,30.06,SSW,202,4.0,7.0,29,0.00,,,0.00,Wunderground v.1.15,2013-01-31 23:14:00,
2013-01-31 15:20:00,77.7,43.8,30.06,West,272,5.0,5.0,30,0.00,,,0.00,Wunderground v.1.15,2013-01-31 23:20:00,
2013-01-31 15:26:00,77.8,43.9,30.06,SW,216,4.0,5.0,30,0.00,,,0.00,Wunderground v.1.15,2013-01-31 23:26:00,
2013-01-31 15:34:00,77.1,42.4,30.06,WSW,250,4.0,4.0,29,0.00,,,0.00,Wunderground v.1.15,2013-01-31 23:34:00,
2013-01-31 15:40:00,76.4,42.7,30.06,WNW,286,4.0,5.0,30,0.00,,,0.00,Wunderground v.1.15,2013-01-31 23:40:00,
2013-01-31 15:46:00,76.0,43.2,30.06,SSW,205,4.0,5.0,31,0.00,,,0.00,Wunderground v.1.15,2013-01-31 23:46:00,
2013-01-31 15:52:00,75.3,43.4,30.06,SW,223,4.0,4.0,32,0.00,,,0.00,Wunderground v.1.15,2013-01-31 23:52:00,
2013-01-31 15:58:00,74.9,43.0,30.07,SW,228,4.0,4.0,32,0.00,,,0.00,Wunderground v.1.15,2013-01-31 23:58:00,
2013-01-31 16:04:00,74.2,43.2,30.07,WNW,286,4.0,4.0,33,0.00,,,0.00,Wunderground v.1.15,2013-02-01 00:04:00,
2013-01-31 16:10:00,73.9,45.3,30.07,SSW,198,3.0,3.0,36,0.00,,,0.00,Wunderground v.1.15,2013-02-01 00:10:00,
2013-01-31 16:16:00,73.0,44.5,30.07,West,265,4.0,7.0,36,0.00,,,0.00,Wunderground v.1.15,2013-02-01 00:16:00,
2013-01-31 16:22:00,72.2,44.5,30.07,SSW,207,4.0,4.0,37,0.00,,,0.00,Wunderground v.1.15,2013-02-01 00:22:00,
2013-01-31 16:28:00,71.8,45.5,30.07,SSW,206,4.0,4.0,39,0.00,,,0.00,Wunderground v.1.15,2013-02-01 00:28:00,
2013-01-31 16:34:00,71.8,46.2,30.07,WSW,250,2.0,4.0,40,0.00,,,0.00,Wunderground v.1.15,2013-02-01 00:34:00,
2013-01-31 16:40:00,71.5,46.6,30.08,SSW,212,3.0,3.0,41,0.00,,,0.00,Wunderground v.1.15,2013-02-01 00:40:00,
2013-01-31 16:46:00,71.0,46.1,30.08,West,271,3.0,3.0,41,0.00,,,0.00,Wunderground v.1.15,2013-02-01 00:46:00,
2013-01-31 16:52:00,70.7,44.5,30.08,SSW,212,2.0,4.0,39,0.00,,,0.00,Wunderground v.1.15,2013-02-01 00:52:00,
2013-01-31 16:58:00,70.3,44.2,30.08,West,259,2.0,4.0,39,0.00,,,0.00,Wunderground v.1.15,2013-02-01 00:58:00,
2013-01-31 17:04:00,70.0,44.6,30.08,WSW,258,2.0,2.0,40,0.00,,,0.00,Wunderground v.1.15,2013-02-01 01:04:00,
2013-01-31 17:10:00,69.6,44.2,30.08,WSW,258,1.0,1.0,40,0.00,,,0.00,Wunderground v.1.15,2013-02-01 01:10:00,
2013-01-31 17:16:00,69.1,45.7,30.08,West,259,1.0,1.0,43,0.00,,,0.00,Wunderground v.1.15,2013-02-01 01:16:00,
2013-01-31 17:22:00,68.5,44.5,30.08,NW,306,1.0,3.0,42,0.00,,,0.00,Wunderground v.1.15,2013-02-01 01:22:00,
2013-01-31 17:28:00,67.8,44.5,30.08,NW,306,2.0,3.0,43,0.00,,,0.00,Wunderground v.1.15,2013-02-01 01:28:00,
2013-01-31 17:34:00,67.4,44.1,30.08,WNW,293,2.0,2.0,43,0.00,,,0.00,Wunderground v.1.15,2013-02-01 01:34:00,
2013-01-31 17:40:00,67.1,44.4,30.08,NW,305,1.0,1.0,44,0.00,,,0.00,Wunderground v.1.15,2013-02-01 01:40:00,
2013-01-31 17:46:00,66.6,43.4,30.08,WNW,294,2.0,2.0,43,0.00,,,0.00,Wunderground v.1.15,2013-02-01 01:46:00,
2013-01-31 17:52:00,66.3,43.1,30.08,WNW,290,2.0,2.0,43,0.00,,,0.00,Wunderground v.1.15,2013-02-01 01:52:00,
2013-01-31 17:58:00,65.9,43.4,30.08,WNW,290,2.0,2.0,44,0.00,,,0.00,Wunderground v.1.15,2013-02-01 01:58:00,
2013-01-31 18:04:00,65.6,43.1,30.08,WNW,290,1.0,2.0,44,0.00,,,0.00,Wunderground v.1.15,2013-02-01 02:04:00,
2013-01-31 18:10:00,65.3,43.4,30.08,WNW,290,0.0,0.0,45,0.00,,,0.00,Wunderground v.1.15,2013-02-01 02:10:00,
2013-01-31 18:16:00,65.1,43.2,30.09,WNW,290,0.0,1.0,45,0.00,,,0.00,Wunderground v.1.15,2013-02-01 02:16:00,
2013-01-31 18:22:00,64.8,42.9,30.09,WNW,289,1.0,1.0,45,0.00,,,0.00,Wunderground v.1.15,2013-02-01 02:22:00,
2013-01-31 18:28:00,64.4,42.6,30.09,WNW,290,1.0,1.0,45,0.00,,,0.00,Wunderground v.1.15,2013-02-01 02:28:00,
2013-01-31 18:34:00,64.1,42.9,30.09,WNW,290,1.0,1.0,46,0.00,,,0.00,Wunderground v.1.15,2013-02-01 02:34:00,
2013-01-31 18:40:00,63.8,42.6,30.09,WNW,289,0.0,0.0,46,0.00,,,0.00,Wunderground v.1.15,2013-02-01 02:40:00,
2013-01-31 18:46:00,63.5,42.9,30.09,WNW,290,0.0,1.0,47,0.00,,,0.00,Wunderground v.1.15,2013-02-01 02:46:00,
2013-01-31 18:52:00,63.1,43.1,30.09,WNW,289,0.0,0.0,48,0.00,,,0.00,Wunderground v.1.15,2013-02-01 02:52:00,
2013-01-31 18:58:00,62.8,42.8,30.09,WNW,290,0.0,0.0,48,0.00,,,0.00,Wunderground v.1.15,2013-02-01 02:58:00,
2013-01-31 19:04:00,62.4,43.5,30.09,WNW,289,0.0,1.0,50,0.00,,,0.00,Wunderground v.1.15,2013-02-01 03:04:00,
2013-01-31 19:10:00,61.9,43.6,30.09,WNW,289,0.0,0.0,51,0.00,,,0.00,Wunderground v.1.15,2013-02-01 03:10:00,
2013-01-31 19:16:00,61.4,43.6,30.09,WNW,289,0.0,0.0,52,0.00,,,0.00,Wunderground v.1.15,2013-02-01 03:16:00,
2013-01-31 19:22:00,60.8,43.6,30.09,WNW,289,0.0,1.0,53,0.00,,,0.00,Wunderground v.1.15,2013-02-01 03:22:00,
2013-01-31 19:28:00,60.5,43.3,30.09,WNW,289,0.0,1.0,53,0.00,,,0.00,Wunderground v.1.15,2013-02-01 03:28:00,
2013-01-31 19:34:00,60.2,43.0,30.09,WNW,289,0.0,0.0,53,0.00,,,0.00,Wunderground v.1.15,2013-02-01 03:34:00,
2013-01-31 19:40:00,59.7,43.5,30.09,WNW,289,0.0,0.0,55,0.00,,,0.00,Wunderground v.1.15,2013-02-01 03:40:00,
2013-01-31 19:46:00,59.3,44.1,30.09,WNW,289,0.0,1.0,57,0.00,,,0.00,Wunderground v.1.15,2013-02-01 03:46:00,
2013-01-31 19:52:00,58.9,43.7,30.09,WNW,289,0.0,0.0,57,0.00,,,0.00,Wunderground v.1.15,2013-02-01 03:52:00,
2013-01-31 19:58:00,58.6,43.9,30.09,WNW,289,0.0,0.0,58,0.00,,,0.00,Wunderground v.1.15,2013-02-01 03:58:00,
2013-01-31 20:04:00,58.3,44.0,30.09,WNW,289,0.0,0.0,59,0.00,,,0.00,Wunderground v.1.15,2013-02-01 04:04:00,
2013-01-31 20:10:00,58.0,43.7,30.10,WNW,289,0.0,0.0,59,0.00,,,0.00,Wunderground v.1.15,2013-02-01 04:10:00,
2013-01-31 20:16:00,57.6,43.8,30.10,WNW,289,0.0,0.0,60,0.00,,,0.00,Wunderground v.1.15,2013-02-01 04:16:00,
2013-01-31 20:22:00,57.3,44.0,30.10,WNW,289,0.0,0.0,61,0.00,,,0.00,Wunderground v.1.15,2013-02-01 04:22:00,
2013-01-31 20:28:00,57.1,43.8,30.10,WNW,289,0.0,0.0,61,0.00,,,0.00,Wunderground v.1.15,2013-02-01 04:28:00,
2013-01-31 20:34:00,56.8,43.9,30.10,WNW,289,0.0,0.0,62,0.00,,,0.00,Wunderground v.1.15,2013-02-01 04:34:00,
2013-01-31 20:40:00,56.5,44.0,30.10,WNW,289,0.0,0.0,63,0.00,,,0.00,Wunderground v.1.15,2013-02-01 04:40:00,
2013-01-31 20:46:00,56.2,43.3,30.10,WNW,289,0.0,0.0,62,0.00,,,0.00,Wunderground v.1.15,2013-02-01 04:46:00,
2013-01-31 20:54:00,56.0,43.2,30.10,WNW,289,0.0,1.0,62,0.00,,,0.00,Wunderground v.1.15,2013-02-01 04:54:00,
2013-01-31 21:00:00,56.0,43.2,30.10,WNW,289,0.0,0.0,62,0.00,,,0.00,Wunderground v.1.15,2013-02-01 05:00:00,
2013-01-31 21:02:00,56.1,43.3,30.10,WNW,289,0.0,0.0,62,0.00,,,0.00,Wunderground v.1.15,2013-02-01 05:02:00,
2013-01-31 21:06:00,56.1,43.3,30.10,WNW,289,0.0,0.0,62,0.00,,,0.00,Wunderground v.1.15,2013-02-01 05:06:00,
2013-01-31 21:12:00,56.1,43.3,30.10,WNW,289,0.0,0.0,62,0.00,,,0.00,Wunderground v.1.15,2013-02-01 05:12:00,
2013-01-31 21:16:00,56.0,43.2,30.10,WNW,289,0.0,0.0,62,0.00,,,0.00,Wunderground v.1.15,2013-02-01 05:16:00,
2013-01-31 21:22:00,56.1,43.3,30.10,WNW,289,0.0,1.0,62,0.00,,,0.00,Wunderground v.1.15,2013-02-01 05:22:00,
2013-01-31 21:28:00,56.0,43.6,30.10,WNW,289,0.0,1.0,63,0.00,,,0.00,Wunderground v.1.15,2013-02-01 05:28:00,
2013-01-31 21:34:00,55.7,43.3,30.10,WNW,289,0.0,1.0,63,0.00,,,0.00,Wunderground v.1.15,2013-02-01 05:34:00,
2013-01-31 21:40:00,55.4,43.0,30.10,WNW,289,0.0,0.0,63,0.00,,,0.00,Wunderground v.1.15,2013-02-01 05:40:00,
2013-01-31 21:46:00,55.2,43.2,30.10,WNW,289,0.0,0.0,64,0.00,,,0.00,Wunderground v.1.15,2013-02-01 05:46:00,
2013-01-31 21:52:00,54.9,43.4,30.10,WNW,289,0.0,0.0,65,0.00,,,0.00,Wunderground v.1.15,2013-02-01 05:52:00,
2013-01-31 21:58:00,54.6,43.1,30.10,WNW,289,0.0,0.0,65,0.00,,,0.00,Wunderground v.1.15,2013-02-01 05:58:00,
2013-01-31 22:04:00,54.2,43.1,30.10,WNW,289,0.0,0.0,66,0.00,,,0.00,Wunderground v.1.15,2013-02-01 06:04:00,
2013-01-31 22:10:00,53.9,43.2,30.10,WNW,289,0.0,0.0,67,0.00,,,0.00,Wunderground v.1.15,2013-02-01 06:10:00,
2013-01-31 22:16:00,53.6,43.3,30.10,WNW,289,0.0,0.0,68,0.00,,,0.00,Wunderground v.1.15,2013-02-01 06:16:00,
2013-01-31 22:22:00,53.3,43.4,30.10,WNW,289,0.0,0.0,69,0.00,,,0.00,Wunderground v.1.15,2013-02-01 06:22:00,
2013-01-31 22:28:00,53.0,43.5,30.09,WNW,289,0.0,0.0,70,0.00,,,0.00,Wunderground v.1.15,2013-02-01 06:28:00,
2013-01-31 22:34:00,52.7,43.2,30.10,WNW,289,0.0,0.0,70,0.00,,,0.00,Wunderground v.1.15,2013-02-01 06:34:00,
2013-01-31 22:40:00,52.4,43.3,30.10,WNW,289,0.0,0.0,71,0.00,,,0.00,Wunderground v.1.15,2013-02-01 06:40:00,
2013-01-31 22:46:00,52.1,43.3,30.10,WNW,289,0.0,0.0,72,0.00,,,0.00,Wunderground v.1.15,2013-02-01 06:46:00,
2013-01-31 22:52:00,51.9,43.2,30.10,WNW,289,0.0,1.0,72,0.00,,,0.00,Wunderground v.1.15,2013-02-01 06:52:00,
2013-01-31 22:58:00,51.9,43.2,30.10,WNW,289,0.0,1.0,72,0.00,,,0.00,Wunderground v.1.15,2013-02-01 06:58:00,
2013-01-31 23:04:00,51.7,43.0,30.10,WNW,289,0.0,0.0,72,0.00,,,0.00,Wunderground v.1.15,2013-02-01 07:04:00,
2013-01-31 23:10:00,51.4,42.7,30.10,WNW,289,0.0,0.0,72,0.00,,,0.00,Wunderground v.1.15,2013-02-01 07:10:00,
2013-01-31 23:16:00,51.2,42.5,30.10,WNW,289,0.0,0.0,72,0.00,,,0.00,Wunderground v.1.15,2013-02-01 07:16:00,
2013-01-31 23:22:00,51.0,42.6,30.10,WNW,289,0.0,0.0,73,0.00,,,0.00,Wunderground v.1.15,2013-02-01 07:22:00,
2013-01-31 23:28:00,50.9,42.9,30.10,WNW,289,0.0,0.0,74,0.00,,,0.00,Wunderground v.1.15,2013-02-01 07:28:00,
2013-01-31 23:34:00,50.8,42.8,30.10,WNW,289,0.0,1.0,74,0.00,,,0.00,Wunderground v.1.15,2013-02-01 07:34:00,
2013-01-31 23:40:00,50.6,43.0,30.10,WNW,289,0.0,0.0,75,0.00,,,0.00,Wunderground v.1.15,2013-02-01 07:40:00,
2013-01-31 23:46:00,50.4,42.8,30.10,WNW,289,0.0,0.0,75,0.00,,,0.00,Wunderground v.1.15,2013-02-01 07:46:00,
2013-01-31 23:54:00,50.1,42.5,30.10,WNW,289,0.0,0.0,75,0.00,,,0.00,Wunderground v.1.15,2013-02-01 07:54:00,